FW6210 Weather Reports


time (UTC)temp
C
wind
direction
speed
KPH
gust
KPH
rain 1hr
cm
rain 24hr
cm
rain mn
cm
humidity
%
barometer
mb
20260906221541 25 148 0.0 8.0 0.00 0.00 0.00 31 1007.5
20260906220039 25 286 1.6 8.0 0.00 0.00 0.00 33 1007.7
20260906214537 26 188 1.6 4.8 0.00 0.00 0.00 29 1007.7
20260906213038 26 12 1.6 9.7 0.00 0.00 0.00 29 1008.0
20260906211536 26 159 1.6 9.7 0.00 0.00 0.00 30 1008.1
20260906210022 26 355 0.0 8.0 0.00 0.00 0.00 32 1008.5
20260906204518 25 223 3.2 8.0 0.00 0.00 0.00 31 1008.6
20260906203017 25 360 1.6 8.0 0.00 0.00 0.00 30 1008.7
20260906201516 24 333 0.0 4.8 0.00 0.00 0.00 31 1009.0
20260906200014 25 92 0.0 12.9 0.00 0.00 0.00 31 1009.0
20260906194512 25 19 0.0 4.8 0.00 0.00 0.00 29 1009.2
20260906193010 26 65 1.6 4.8 0.00 0.00 0.00 30 1009.6
20260906191507 25 11 1.6 4.8 0.00 0.00 0.00 31 1009.9
20260906190003 25 333 0.0 4.8 0.00 0.00 0.00 31 1010.5
20260906184502 24 252 1.6 6.4 0.00 0.00 0.00 32 1010.8
20260906183059 24 107 3.2 12.9 0.00 0.00 0.00 32 1011.0
20260906181558 24 100 1.6 8.0 0.00 0.00 0.00 33 1011.2
20260906180105 24 139 1.6 6.4 0.00 0.00 0.00 34 1011.5
20260906174603 24 67 0.0 4.8 0.00 0.00 0.00 33 1011.7
20260906173051 23 347 1.6 6.4 0.00 0.00 0.00 31 1011.9
20260906171547 23 199 0.0 1.6 0.00 0.00 0.00 33 1012.1
20260906170042 22 234 0.0 3.2 0.00 0.00 0.00 35 1012.3
20260906164539 22 44 0.0 3.2 0.00 0.00 0.00 37 1012.5
20260906163037 21 104 0.0 3.2 0.00 0.00 0.00 37 1012.6
20260906161541 20 169 0.0 4.8 0.00 0.00 0.00 40 1012.5
20260906160023 18 360 0.0 1.6 0.00 0.00 0.00 51 1012.6
20260906154533 16 360 0.0 1.6 0.00 0.00 0.00 56 1012.6
20260906153016 13 360 0.0 3.2 0.00 0.00 0.00 73 1012.7
20260906151509 11 360 0.0 1.6 0.00 0.00 0.00 77 1012.9
20260906150009 10 360 0.0 0.0 0.00 0.00 0.00 82 1013.1
20260906144510 8 360 0.0 0.0 0.00 0.00 0.00 87 1013.1
20260906143002 7 360 0.0 0.0 0.00 0.00 0.00 85 1013.3
20260906141501 6 360 0.0 0.0 0.00 0.00 0.00 85 1013.3
20260906140001 5 360 0.0 0.0 0.00 0.00 0.00 85 1013.3
20260906134604 5 360 0.0 0.0 0.00 0.00 0.00 84 1013.2
20260906133107 5 360 0.0 0.0 0.00 0.00 0.00 85 1013.0
20260906131603 5 360 0.0 0.0 0.00 0.00 0.00 86 1013.1
20260906130100 5 360 0.0 0.0 0.00 0.00 0.00 86 1012.8
20260906124557 5 360 0.0 0.0 0.00 0.00 0.00 85 1013.0
20260906123101 5 360 0.0 0.0 0.00 0.00 0.00 85 1013.0
20260906121555 5 360 0.0 0.0 0.00 0.00 0.00 85 1012.9
20260906120119 5 360 0.0 0.0 0.00 0.00 0.00 86 1012.8
20260906114602 5 360 0.0 0.0 0.00 0.00 0.00 84 1012.8
20260906113051 5 360 0.0 1.6 0.00 0.00 0.00 83 1012.8
20260906111557 5 360 0.0 0.0 0.00 0.00 0.00 82 1013.0
20260906110048 6 360 0.0 0.0 0.00 0.00 0.00 81 1012.9
20260906104547 6 360 0.0 0.0 0.00 0.00 0.00 82 1012.8
20260906103050 6 360 0.0 0.0 0.00 0.00 0.00 81 1012.8
20260906101544 6 360 0.0 0.0 0.00 0.00 0.00 81 1012.8
20260906100055 6 360 0.0 0.0 0.00 0.00 0.00 81 1012.7
20260906094549 6 360 0.0 0.0 0.00 0.00 0.00 81 1012.7
20260906093041 6 360 0.0 0.0 0.00 0.00 0.00 79 1012.6
20260906091539 7 360 0.0 0.0 0.00 0.00 0.00 77 1012.6
20260906090036 7 360 0.0 0.0 0.00 0.00 0.00 78 1012.5
20260906084534 7 360 0.0 0.0 0.00 0.00 0.00 80 1012.4
20260906083033 7 360 0.0 0.0 0.00 0.00 0.00 78 1012.4
20260906081531 7 360 0.0 0.0 0.00 0.00 0.00 78 1012.3
20260906080021 7 360 0.0 0.0 0.00 0.00 0.00 78 1012.3
20260906074520 8 360 0.0 0.0 0.00 0.00 0.00 76 1012.4
20260906073023 7 360 0.0 0.0 0.00 0.00 0.00 78 1012.4
20260906071517 8 360 0.0 0.0 0.00 0.00 0.00 75 1012.4
20260906070022 8 360 0.0 0.0 0.00 0.00 0.00 73 1012.4
20260906064514 8 360 0.0 0.0 0.00 0.00 0.00 73 1012.4
20260906063013 8 360 0.0 0.0 0.00 0.00 0.00 75 1012.3
20260906061511 8 360 0.0 0.0 0.00 0.00 0.00 74 1012.2
20260906060008 9 360 0.0 0.0 0.00 0.00 0.00 72 1012.2
20260906054506 10 360 0.0 0.0 0.00 0.00 0.00 72 1012.0
20260906053007 10 360 0.0 0.0 0.00 0.00 0.00 71 1012.0
20260906051506 10 360 0.0 0.0 0.00 0.00 0.00 71 1011.9
20260906050005 10 360 0.0 0.0 0.00 0.00 0.00 68 1011.9
20260906044505 11 360 0.0 0.0 0.00 0.00 0.00 69 1011.8
20260906043005 11 360 0.0 0.0 0.00 0.00 0.00 68 1011.8
20260906041504 11 360 0.0 0.0 0.00 0.00 0.00 67 1011.8
20260906040003 12 360 0.0 0.0 0.00 0.00 0.00 65 1011.7
20260906034503 12 360 0.0 0.0 0.00 0.00 0.00 66 1011.6
20260906033003 12 360 0.0 0.0 0.00 0.00 0.00 64 1011.5
20260906031508 13 360 0.0 0.0 0.00 0.00 0.00 61 1011.4
20260906030004 13 360 0.0 0.0 0.00 0.00 0.00 61 1011.1
20260906024504 14 360 0.0 1.6 0.00 0.00 0.00 59 1010.7
20260906023103 15 360 0.0 3.2 0.00 0.00 0.00 58 1010.6
20260906021607 15 360 0.0 3.2 0.00 0.00 0.00 56 1010.4
20260906020101 16 360 0.0 1.6 0.00 0.00 0.00 54 1010.2
20260906014559 17 360 0.0 1.6 0.00 0.00 0.00 52 1010.0
20260906013105 18 360 0.0 1.6 0.00 0.00 0.00 53 1009.9
20260906011604 18 360 0.0 1.6 0.00 0.00 0.00 50 1010.0
20260906010057 20 360 0.0 1.6 0.00 0.00 0.00 49 1009.9
20260906004600 20 360 0.0 1.6 0.00 0.00 0.00 44 1009.9
20260906003057 21 44 0.0 1.6 0.00 0.00 0.00 39 1009.8
20260906001556 21 360 0.0 1.6 0.00 0.00 0.00 43 1009.7
20260906000105 22 360 0.0 1.6 0.00 0.00 0.00 41 1009.6
20260905234601 22 360 0.0 1.6 0.00 0.00 0.00 39 1009.6
20260905233056 23 38 0.0 3.2 0.00 0.00 0.00 36 1009.5
20260905231554 23 36 0.0 3.2 0.00 0.00 0.00 35 1009.6
20260905230056 23 146 0.0 6.4 0.00 0.00 0.00 35 1009.5
20260905224553 23 337 0.0 3.2 0.00 0.00 0.00 35 1009.6
20260905223052 23 338 0.0 4.8 0.00 0.00 0.00 34 1009.8